ABR551 HECA-HEGN

Flight info

Callsign ABR551
Flight time N/A
Altitude 29000
Route CVO L315 HGD
Aircraft A332/H-SDE3GHIJ2J3J5M1RVWXY/LB2D1

Departure

Time 2026-04-27 13:58
Airport Cairo International Airport (HECA)

Arrival

Time N/A
Airport Hurghada International Airport (HEGN)
Time Latitude Longitude Altitude Speed Heading
2026-04-27 13:39 30.11821 31.41007 367 ft 0 kts 252°
2026-04-27 13:40 30.11821 31.41008 367 ft 0 kts 252°
2026-04-27 13:49 30.11825 31.41021 340 ft 3 kts 257°
2026-04-27 13:49 30.11829 31.41044 352 ft 3 kts 246°
2026-04-27 13:49 30.11839 31.41064 352 ft 3 kts 238°
2026-04-27 13:50 30.11850 31.41084 352 ft 3 kts 239°
2026-04-27 13:50 30.11860 31.41104 352 ft 3 kts 237°
2026-04-27 13:50 30.11868 31.41118 352 ft 3 kts 233°
2026-04-27 13:53 30.11847 31.41116 351 ft 5 kts 179°
2026-04-27 13:53 30.11797 31.41129 350 ft 10 kts 163°
2026-04-27 13:53 30.11716 31.41159 357 ft 15 kts 162°
2026-04-27 13:54 30.11605 31.41201 366 ft 19 kts 162°
2026-04-27 13:54 30.11468 31.41249 371 ft 22 kts 166°
2026-04-27 13:54 30.11403 31.41310 373 ft 9 kts 86°
2026-04-27 13:54 30.11445 31.41391 372 ft 16 kts 50°
2026-04-27 13:55 30.11535 31.41511 376 ft 24 kts 48°
2026-04-27 13:55 30.11658 31.41674 378 ft 30 kts 50°
2026-04-27 13:55 30.11807 31.41874 375 ft 36 kts 48°
2026-04-27 13:55 30.11979 31.42100 373 ft 40 kts 48°
2026-04-27 13:56 30.12146 31.42326 377 ft 21 kts 48°
2026-04-27 13:56 30.12195 31.42413 375 ft 1 kts 84°
2026-04-27 13:56 30.12194 31.42453 377 ft 13 kts 99°
2026-04-27 13:56 30.12127 31.42549 381 ft 22 kts 136°
2026-04-27 13:57 30.12060 31.42574 385 ft 4 kts 192°
2026-04-27 13:57 30.11943 31.42455 387 ft 48 kts 228°
2026-04-27 13:57 30.11566 31.41957 387 ft 114 kts 229°
2026-04-27 13:57 30.10927 31.41126 596 ft 150 kts 235°
2026-04-27 13:58 30.10199 31.40236 1313 ft 154 kts 225°
2026-04-27 13:58 30.09142 31.40032 1981 ft 167 kts 172°
2026-04-27 13:58 30.07933 31.40159 2366 ft 187 kts 173°
2026-04-27 13:58 30.06603 31.40666 2646 ft 217 kts 154°
2026-04-27 13:59 30.05266 31.41564 2817 ft 227 kts 148°
2026-04-27 13:59 30.03953 31.42621 2875 ft 229 kts 142°
2026-04-27 13:59 30.02765 31.43747 2780 ft 214 kts 137°
2026-04-27 13:59 30.01721 31.44904 2667 ft 203 kts 131°
2026-04-27 14:00 30.00810 31.46078 2495 ft 194 kts 127°
2026-04-27 14:00 29.99996 31.47290 2315 ft 188 kts 122°
2026-04-27 14:00 29.99291 31.48546 2010 ft 187 kts 117°
2026-04-27 14:00 29.98626 31.49778 1814 ft 173 kts 121°
2026-04-27 14:01 29.98015 31.50921 1645 ft 161 kts 110°
2026-04-27 14:01 29.97760 31.52117 1378 ft 151 kts 91°
2026-04-27 14:01 29.97661 31.53160 1205 ft 82 kts 94°